Impacts METAR Board INFO
IDs:

KPIT - Pittsburgh Intl, PA, US

Updated at: 1501 UTC 16 Dec 2017
Potential Impact None Slight Moderate High
Time16/03Z 16/04Z 16/05Z 16/06Z 16/07Z 16/08Z 16/09Z 16/10Z 16/11Z 16/12Z 16/13Z 16/14Z 16/15Z
VIS10 10 10 10 10 10 10 9 2.5 5 7 10 10
CIG48 50 55 55 60 100 65 45 27 48 55 60 80
CoverOVCOVCOVCOVCOVCOVCOVCOVCOVCOVCOVCOVCOVC
FltCatVFRVFRVFRVFRVFRVFRVFRVFRIFRMVFRVFRVFRVFR
WX---------------SN-SN-SN-SN-SN--
WDir270270220240240230230230220220230210230
WSpd12 11 11 12 12 12 12 9 10 11 8 8 9
WGst-- -- -- -- 19 19 20 18 -- -- -- -- --
Raw hourly METARs
KPIT 160251Z 27012KT 10SM FEW024 BKN048 OVC060 M02/M08 A2996 RMK AO2 SNE49 SLP171 P0000 60000 T10221078 51021 $
KPIT 160351Z 27011KT 10SM OVC050 M02/M09 A2999 RMK AO2 SLP177 T10221089 $
KPIT 160451Z 22011KT 10SM OVC055 M02/M08 A2998 RMK AO2 SLP176 T10171083 410171100 $
KPIT 160551Z 24012KT 10SM SCT043 OVC055 M02/M08 A2998 RMK AO2 SNB25E50 SLP173 P0000 60000 T10171078 11017 21028 50004 $
KPIT 160651Z 24012G19KT 10SM BKN060 OVC095 M01/M08 A2999 RMK AO2 SLP175 T10111078 $
KPIT 160751Z 23012G19KT 10SM FEW060 OVC100 M01/M08 A2999 RMK AO2 SLP178 T10111078 $
KPIT 160851Z 23012G20KT 10SM OVC065 M01/M08 A3000 RMK AO2 SLP178 T10111078 51005 $
KPIT 160951Z 23009G18KT 9SM -SN SCT023 OVC045 M01/M07 A2999 RMK AO2 SNB10 SLP176 P0000 T10061067 $
KPIT 161051Z 22010KT 2 1/2SM -SN OVC027 M01/M05 A3000 RMK AO2 SLP181 VIS 2V3 P0000 T10111050 $
KPIT 161151Z 22011KT 5SM -SN FEW034 OVC048 M01/M04 A3001 RMK AO2 SLP183 P0000 60000 T10111044 11006 21017 53003 $
KPIT 161251Z 23008KT 7SM -SN FEW032 BKN055 OVC085 M01/M04 A3002 RMK AO2 SLP187 P0000 T10061039 $
KPIT 161351Z 21008KT 10SM -SN BKN060 OVC080 00/M05 A3001 RMK AO2 SLP184 P0000 T00001050 $
KPIT 161451Z 23009KT 10SM FEW055 OVC080 01/M05 A3002 RMK AO2 SNE24 SLP186 P0000 60000 T00111050 51005 $